Location: �terpigny
(49.8910°N, 2.9249°E)
Time: 03:30:43
(UTC+00:00)

Cosmos 614 Rocket - Pass Details

Date: 02 June 2022
Orbit: 732 x 764 km, 74.1° (Epoch: 05 July)

Event Time Altitude Azimuth Distance (km) Brightness Sun altitude
Rises 01:57:36 0° 325° (NW) 3,225 7.6 -12.3°
Reaches altitude 10° 02:00:31 10° 309° (NW) 2,299 6.6 -12.0°
Maximum altitude 02:04:13 20° 263° (W) 1,710 5.5 -11.7°
Enters shadow 02:06:42 15° 229° (SW) 1,994 5.5 -11.5°
